This is the latest recevied weather packets stored in our database for station/object NE1CU. If no packets are shown the sender has not sent any weather packets the latest 1 day(s).
| Time | Temp. | Humidity | Pressure | Rain* | Wind** | Luminosity | Snow |
|---|---|---|---|---|---|---|---|
| 1778033823 | 16.67° C | 68% | 1011 hPa | 0 mm | 2.68 m/s, 152° | 0 W/m² | - |
| 1778033520 | 16.67° C | 67% | 1010.8 hPa | 0 mm | 1.79 m/s, 237° | 0 W/m² | - |
| 1778033217 | 16.67° C | 66% | 1010.8 hPa | 0 mm | 0.89 m/s, 334° | 0 W/m² | - |
| 1778032914 | 17.22° C | 66% | 1010.6 hPa | 0 mm | 1.34 m/s, 247° | 0 W/m² | - |
| 1778032612 | 17.22° C | 66% | 1010.6 hPa | 0 mm | 0.89 m/s, 151° | 0 W/m² | - |
| 1778032309 | 17.22° C | 65% | 1010.5 hPa | 0 mm | 0.89 m/s, 131° | 0 W/m² | - |
| 1778032006 | 17.22° C | 65% | 1010.6 hPa | 0 mm | 1.79 m/s, 115° | 0 W/m² | - |
| 1778031702 | 17.22° C | 65% | 1010.5 hPa | 0 mm | 0.89 m/s, 70° | 0 W/m² | - |
| 1778031400 | 17.22° C | 65% | 1010.4 hPa | 0 mm | 0.45 m/s, 177° | 0 W/m² | - |
| 1778031097 | 17.22° C | 65% | 1010.3 hPa | 0 mm | 0.89 m/s, 51° | 0 W/m² | - |
| 1778030793 | 17.22° C | 65% | 1010.4 hPa | 0 mm | 1.79 m/s, 255° | 0 W/m² | - |
| 1778030490 | 17.22° C | 65% | 1010.3 hPa | 0 mm | 0.89 m/s, 148° | 0 W/m² | - |
| 1778030188 | 17.22° C | 65% | 1010.2 hPa | 0 mm | 1.34 m/s, 177° | 0 W/m² | - |
| 1778029883 | 17.22° C | 64% | 1010.1 hPa | 0 mm | 1.79 m/s, 247° | 0 W/m² | - |
| 1778029582 | 17.22° C | 65% | 1010.1 hPa | 0 mm | 2.24 m/s, 242° | 0 W/m² | - |
| 1778029279 | 17.22° C | 65% | 1010.1 hPa | 0 mm | 1.79 m/s, 235° | 0 W/m² | - |
| 1778028976 | 17.22° C | 64% | 1010.1 hPa | 0 mm | 0.89 m/s, 239° | 0 W/m² | - |
| 1778028672 | 17.22° C | 64% | 1010 hPa | 0 mm | 0.89 m/s, 144° | 0 W/m² | - |
| 1778028369 | 17.22° C | 63% | 1009.9 hPa | 0 mm | 1.34 m/s, 211° | 0 W/m² | - |
| 1778028066 | 17.78° C | 63% | 1009.8 hPa | 0 mm | 0.89 m/s, 266° | 0 W/m² | - |
| 1778027763 | 17.78° C | 63% | 1009.7 hPa | 0 mm | 1.34 m/s, 254° | 0 W/m² | - |
| 1778027459 | 17.22° C | 63% | 1009.8 hPa | 0 mm | 2.24 m/s, 145° | 0 W/m² | - |
| 1778027154 | 17.22° C | 64% | 1009.6 hPa | 0 mm | 1.79 m/s, 248° | 0 W/m² | - |
| 1778026851 | 17.22° C | 64% | 1009.7 hPa | 0 mm | 0.89 m/s, 158° | 0 W/m² | - |
| 1778026547 | 17.22° C | 64% | 1009.8 hPa | 0 mm | 0.89 m/s, 136° | 0 W/m² | - |
* Rain latest hour (hover to see other rain measurements)
** Current wind speed in m/s (hover to see current wind gust speed)